Location: Napier
(39.4830°S, 176.9170°E)
Time: 05:06:43
(UTC+13:00)

ISS - Pass Details

Date: 31 January 2019
Orbit: 403 x 411 km, 51.6° (Epoch: 20 February)

Event Time Altitude Azimuth Distance (km) Brightness Sun altitude
Exits shadow 04:36:39 46° 356° (N) 567 -3.5 -17.6°
Maximum altitude 04:37:17 56° 41° (NE) 498 -3.5 -17.5°
Drops below altitude 10° 04:40:35 10° 121° (ESE) 1,496 0.3 -17.0°
Sets 04:42:43 0° 124° (SE) 2,362 1.8 -16.7°
